Location: Maccacari
(45.1333°N, 11.1333°E)
Time: 01:53:34
(UTC+00:00)

A-11 Canister half - Pass Details

Date: 25 January 2021
Orbit: 1525 x 1684 km, 47.3° (Epoch: 07 March)

Event Time Altitude Azimuth Distance (km) Brightness Sun altitude
Rises 12:01:38 0° 201° (SSW) 4,659 12.8 25.6°
Reaches altitude 10° 12:05:04 10° 192° (SSW) 3,681 12.9 25.5°
Maximum altitude 12:12:52 32° 134° (SE) 2,410 10.7 25.2°
Drops below altitude 10° 12:20:48 10° 76° (ENE) 3,749 10.9 24.9°
Sets 12:24:18 0° 67° (ENE) 4,757 11.2 24.8°
